Погода в Пояркове

Россия / Амурская область     49°37′34″N   128°39′27″E
темп.,
°C
ветер,
м/с
пор.,
м/с
влажн.,
%
обл.,
%
осадки,
мм/ч
давл.,
гПа
погр.,
м
1 марта, пн
пн100:00−21ссз47840 0.0 103397
03:00−23сз33850 0.0 103522
06:00−25зсз23841 0.0 103420
09:00−22з118351 0.0 103533
12:00−17з247765 0.0 1034456
15:00−16сз348034 0.0 1031461
18:00−20св22860 0.0 103120
21:00−21вюв228647 0.0 103220
2 марта, вт
вт200:00−23юв228752 0.0 103120
03:00−24вюв228932 0.0 103120
06:00−25вюв349283 0.0 103147
09:00−22вюв349890 0.1 1031127
12:00−18ююв2392100 0.1 1029259
15:00−15вюв2290100 0.1 1027285
18:00−18вюв3494100 0.0 102668
21:00−17юв3797100 0.1 1026163
3 марта, ср
ср300:00−16юв3397100 0.1 102467
03:00−16юв3490100 0.1 102282
06:00−16юв4691100 0.0 1020128
09:00−14юв589598 0.3 1018248
12:00−9ююв4794100 0.6 1015478
15:00−6юз3684100 0.9 1013756
18:00−9юв1291100 0.0 101221
21:00−9ю1294100 0.1 101429
4 марта, чт
чт400:00−9ю2296100 0.3 101327
03:00−11ююз1198100 0.6 101321
06:00−12вюв229795 0.1 101321
09:00−9ююв129597 0.3 1012113
12:00−7зюз3493100 0.5 1011417
15:00−10сз6892100 0.8 1011396
18:00−14ссз61290100 0.0 1014491
21:00−17ссз6139191 0.0 1019492
5 марта, пт
пт500:00−20сз5129048 0.0 1024318
03:00−23сз5138224 0.0 1027393
06:00−27сз49850 0.0 1030173
09:00−24сз612790 0.0 1032753
12:00−22сз69750 0.0 1033974
15:00−19сз6117433 0.0 10331220
18:00−20зсз3485100 0.0 103459
21:00−22зсз348898 0.0 103632